COSMOS 1823 DEB, 39832

Orbit data source: Space-Track

COSMOS 1823 DEB, 39832 is space debris in LEO originally from a launch on Fri, 20 Feb 1987 UTC launched from the Plesetsk Missile And Space Complex (PKMTR). Debris objects in space refer to the collection of defunct objects orbiting the Earth. Examples of debris include non-operational satellites, rocket bodies, and fragments generated from explosions, collisions, or faulty payload assembly.

Loading next visibility...
Identifier
39832, 1987-020FG
Orbit
LEO
Country
Flag of CISCIS
Related business
Manufacturer
Unknown
Mission
Spacecraft
Bus & Motor
Unknown
Mass
Unknown
Launch date (UTC)
1987-02-20 (39 years ago)
Launch vehicle
Unknown
Launch site
Plesetsk Missile And Space Complex (PKMTR)
Object type
Payload
Rocket body
Debris
Shape & HBR
Unknown shape, 0.1 m
Radar Cross Section
Medium (>0.1 m² and <1 m²)

Expand to show TLE details & history
Last TLE update: 6 days ago

TLE from 6 days ago
0 COSMOS 1823 DEB
1 39832U 87020FG  26167.50299875 -.00000001  00000-0  12383-3 0  9991
2 39832  73.6078  89.6631 0036843 276.6735  83.0116 12.40727321544798
Epoch: 2026-06-16T12:04Z
TLE epoch observation values (Epoch: 2026-06-16T12:04:19.091Z)
Latitude
0.00002°
Longitude
3.80946°
Altitude
1,502.44 km
Speed
7.115 km/s
True Right ascension
05h 58m 39s
True Declination
0° 00' 00"
Sunlit
Object was in daylight at epoch
Visualization orbit readout
Latitude
Unknown
Longitude
Unknown
Altitude
Unknown
Speed
Unknown
Apparent Right ascension
Unknown
Apparent Declination
Unknown
Sunlit
N/A
Visualization observer readout
Local Sidereal Time
06:33:13
Azimuth
Unknown
Elevation
Unknown
Doppler factor
Unknown
Orbital elements
Apogee altitude
1,530.431 km
Perigee altitude
1,472.37 km
Semi-major axis
7,879.537 km
Eccentricity
0.00368
Inclination
73.6078°
RAAN
89.6631°
Arg. of periapsis
276.6735°
True anomaly
83.43088°
Mean anomaly
83.0116°
Eccentric anomaly
83.22122°
Mean motion
3.10307 °/min
Orbital period
116.01 mins
BSTAR
0.00012383
Loading maneuver chart data...
Computing Atmospheric mass density...

Documentation

Showing up to 5 results
|